QPF
0.00 0.01 0.02 0.02 0.01 0.01 0.01 0.00 0.00 0.01 0.04 0.05 0.09 0.09 0.06 0.02 0.00 0.00 0.00 0.00 0.01 0.01 0.02 0.02 0.02 0.01 0.01 0.01 0.02 0.02 0.02 0.02 0.04 0.03 0.03 0.03 0.03 0.02 0.02 0.02 0.01 0.01 0.01 0.01
0.00 0.01 0.01 0.01 0.00 0.00 0.00 0.00 0.00 0.01 0.02 0.03 0.05 0.06 0.04 0.02 0.00 0.00 0.00 0.01 0.01 0.01 0.02 0.02 0.02 0.02 0.01 0.02 0.02 0.02 0.03 0.03 0.04 0.04 0.04 0.05 0.06 0.05 0.05 0.04 0.03 0.02 0.01 0.01
0.00 0.01 0.00 0.00 0.00 0.00 0.00 0.00 0.00 0.00 0.01 0.02 0.03 0.05 0.04 0.01 0.00 0.00 0.00 0.01 0.01 0.01 0.01 0.01 0.01 0.01 0.01 0.01 0.01 0.01 0.03 0.04 0.04 0.04 0.05 0.06 0.06 0.06 0.06 0.05 0.04 0.03 0.02 0.01
0.00 0.02 0.02 0.01 0.01 0.01 0.00 0.00 0.00 0.00 0.00 0.02 0.02 0.01 0.00 0.00 0.00 0.00 0.01 0.01 0.01 0.00 0.01 0.01 0.01 0.01 0.01 0.01 0.01 0.03 0.04 0.05 0.06 0.07 0.07 0.08 0.07 0.06 0.06 0.05 0.04 0.03 0.02 0.02
0.01 0.02 0.03 0.04 0.03 0.02 0.01 0.01 0.01 0.01 0.01 0.01 0.01 0.01 0.00 0.00 0.00 0.00 0.01 0.01 0.01 0.01 0.01 0.01 0.02 0.03 0.03 0.04 0.05 0.07 0.08 0.09 0.09 0.09 0.09 0.08 0.07 0.06 0.06 0.06 0.06 0.06 0.05 0.03
0.02 0.04 0.06 0.04 0.04 0.03 0.01 0.02 0.01 0.02 0.03 0.02 0.02 0.05 0.04 0.01 0.00 0.00 0.00 0.01 0.01 0.01 0.01 0.03 0.04 0.05 0.05 0.06 0.06 0.06 0.07 0.07 0.06 0.06 0.06 0.05 0.04 0.04 0.04 0.04 0.04 0.05 0.05 0.05
0.05 0.04 0.03 0.04 0.04 0.02 0.05 0.08 0.02 0.03 0.03 0.03 0.05 0.07 0.04 0.01 0.00 0.00 0.00 0.01 0.01 0.01 0.01 0.02 0.02 0.03 0.04 0.05 0.06 0.06 0.05 0.05 0.04 0.04 0.04 0.03 0.03 0.03 0.03 0.02 0.02 0.02 0.02 0.03
0.07 0.09 0.09 0.08 0.11 0.12 0.13 0.07 0.05 0.05 0.05 0.05 0.05 0.04 0.02 0.01 0.00 0.00 0.01 0.01 0.01 0.01 0.01 0.01 0.01 0.02 0.02 0.02 0.02 0.02 0.02 0.02 0.02 0.02 0.03 0.02 0.02 0.02 0.02 0.02 0.02 0.02 0.02 0.02
0.13 0.14 0.11 0.10 0.15 0.13 0.07 0.03 0.02 0.02 0.01 0.02 0.02 0.01 0.01 0.00 0.00 0.01 0.01 0.01 0.01 0.01 0.01 0.01 0.01 0.01 0.01 0.01 0.01 0.01 0.01 0.01 0.02 0.01 0.01 0.01 0.02 0.02 0.02 0.02 0.01 0.01 0.01 0.01
0.22 0.21 0.16 0.08 0.04 0.02 0.01 0.00 0.00 0.01 0.01 0.01 0.01 0.01 0.00 0.00 0.00 0.00 0.00 0.01 0.01 0.01 0.02 0.02 0.02 0.02 0.02 0.02 0.02 0.01 0.01 0.01 0.01 0.01 0.01 0.01 0.00 0.00 0.00 0.00 0.00 0.00 0.01 0.01
0.20 0.21 0.13 0.09 0.03 0.01 0.00 0.01 0.01 0.01 0.01 0.01 0.01 0.01 0.01 0.00 0.00 0.00 0.00 0.00 0.00 0.00 0.00 0.00 0.01 0.01 0.01 0.01 0.00 0.00 0.00 0.00 0.00 0.00 0.00 0.00 0.00 0.00 0.00 0.00 0.00 0.00 0.00 0.00
0.17 0.14 0.09 0.06 0.01 0.00 0.00 0.01 0.01 0.02 0.02 0.02 0.01 0.01 0.00 0.00 0.00 0.00 0.00 0.00 0.00 0.00 0.00 0.00 0.00 0.00 0.00 0.00 0.00 0.00 0.00 0.00 0.00 0.00 0.00 0.00 0.00 0.00 0.00 0.00 0.00 0.00 0.00 0.00
0.05 0.05 0.04 0.02 0.01 0.01 0.01 0.01 0.01 0.02 0.03 0.03 0.03 0.02 0.01 0.01 0.00 0.00 0.00 0.00 0.00 0.00 0.00 0.00 0.00 0.00 0.00 0.00 0.00 0.00 0.00 0.00 0.00 0.00 0.00 0.00 0.00 0.00 0.00 0.00 0.00 0.00 0.00 0.00
0.01 0.01 0.01 0.01 0.01 0.01 0.01 0.01 0.02 0.02 0.02 0.03 0.03 0.03 0.02 0.01 0.01 0.01 0.01 0.01 0.00 0.00 0.00 0.00 0.00 0.00 0.00 0.00 0.00 0.00 0.00 0.00 0.00 0.00 0.00 0.00 0.00 0.00 0.00 0.00 0.00 0.00 0.00 0.00
0.01 0.00 0.01 0.01 0.01 0.01 0.02 0.02 0.02 0.02 0.02 0.02 0.02 0.02 0.02 0.01 0.01 0.01 0.01 0.01 0.00 0.00 0.00 0.00 0.00 0.00 0.00 0.00 0.00 0.00 0.00 0.00 0.00 0.00 0.00 0.00 0.00 0.00 0.00 0.00 0.00 0.00 0.00 0.00
0.01 0.01 0.01 0.01 0.01 0.02 0.01 0.01 0.01 0.01 0.01 0.01 0.01 0.01 0.01 0.01 0.00 0.00 0.00 0.00 0.00 0.00 0.01 0.01 0.01 0.00 0.00 0.00 0.00 0.00 0.00 0.00 0.00 0.00 0.00 0.00 0.00 0.00 0.00 0.00 0.01 0.01 0.01 0.01
0.01 0.02 0.02 0.02 0.02 0.01 0.00 0.00 0.00 0.00 0.00 0.00 0.00 0.00 0.00 0.00 0.00 0.01 0.01 0.01 0.01 0.01 0.01 0.01 0.01 0.00 0.00 0.00 0.00 0.00 0.00 0.00 0.00 0.00 0.00 0.00 0.00 0.00 0.01 0.01 0.01 0.01 0.00 0.00
0.02 0.02 0.02 0.02 0.01 0.01 0.00 0.00 0.00 0.00 0.00 0.00 0.01 0.01 0.01 0.02 0.02 0.02 0.02 0.01 0.01 0.02 0.02 0.01 0.00 0.00 0.00 0.00 0.00 0.00 0.00 0.00 0.00 0.00 0.00 0.00 0.00 0.00 0.00 0.00 0.00 0.00 0.00 0.00
0.01 0.01 0.01 0.00 0.00 0.00 0.00 0.00 0.00 0.00 0.00 0.01 0.01 0.01 0.01 0.01 0.01 0.01 0.02 0.02 0.03 0.04 0.03 0.00 0.00 0.00 0.00 0.00 0.00 0.00 0.00 0.00 0.00 0.00 0.00 0.00 0.00 0.00 0.00 0.01 0.01 0.01 0.01 0.01
0.00 0.00 0.00 0.00 0.00 0.00 0.00 0.00 0.00 0.00 0.00 0.00 0.00 0.00 0.00 0.00 0.01 0.02 0.03 0.04 0.03 0.02 0.01 0.00 0.00 0.00 0.00 0.00 0.00 0.00 0.00 0.00 0.00 0.00 0.00 0.00 0.00 0.01 0.01 0.01 0.01 0.01 0.01 0.02
0.00 0.00 0.00 0.00 0.00 0.00 0.00 0.00 0.00 0.00 0.00 0.00 0.01 0.01 0.01 0.01 0.01 0.02 0.03 0.04 0.02 0.00 0.00 0.00 0.00 0.00 0.00 0.00 0.00 0.00 0.00 0.00 0.00 0.00 0.00 0.01 0.01 0.01 0.01 0.01 0.01 0.01 0.01 0.01
0.00 0.00 0.00 0.00 0.00 0.00 0.00 0.00 0.00 0.00 0.00 0.00 0.00 0.01 0.01 0.02 0.02 0.03 0.02 0.02 0.01 0.00 0.00 0.00 0.00 0.00 0.00 0.00 0.00 0.00 0.00 0.00 0.00 0.00 0.01 0.01 0.01 0.00 0.00 0.01 0.01 0.01 0.01 0.01
0.01 0.01 0.01 0.00 0.00 0.00 0.00 0.00 0.00 0.00 0.00 0.00 0.00 0.01 0.01 0.02 0.02 0.03 0.02 0.01 0.00 0.00 0.00 0.00 0.00 0.00 0.00 0.00 0.00 0.00 0.00 0.00 0.00 0.00 0.00 0.00 0.00 0.00 0.01 0.01 0.01 0.01 0.01 0.02
0.02 0.01 0.00 0.00 0.00 0.00 0.00 0.00 0.00 0.00 0.00 0.00 0.01 0.01 0.02 0.02 0.02 0.02 0.01 0.00 0.00 0.00 0.00 0.00 0.00 0.00 0.00 0.00 0.00 0.00 0.00 0.00 0.00 0.00 0.00 0.00 0.01 0.01 0.01 0.01 0.02 0.02 0.03 0.03
0.01 0.01 0.00 0.00 0.00 0.00 0.00 0.00 0.00 0.00 0.01 0.01 0.02 0.02 0.02 0.03 0.03 0.02 0.01 0.01 0.00 0.00 0.00 0.00 0.00 0.00 0.00 0.00 0.00 0.00 0.00 0.00 0.00 0.00 0.01 0.01 0.01 0.02 0.02 0.02 0.02 0.03 0.03 0.03
0.00 0.01 0.01 0.01 0.00 0.00 0.00 0.00 0.00 0.01 0.02 0.04 0.04 0.05 0.04 0.03 0.02 0.02 0.02 0.02 0.01 0.01 0.01 0.00 0.00 0.00 0.00 0.00 0.00 0.00 0.00 0.00 0.00 0.00 0.01 0.01 0.01 0.02 0.02 0.02 0.02 0.02 0.02 0.03
0.01 0.01 0.01 0.01 0.01 0.00 0.00 0.01 0.01 0.03 0.04 0.06 0.07 0.06 0.05 0.04 0.03 0.02 0.02 0.02 0.02 0.01 0.01 0.00 0.00 0.00 0.00 0.00 0.00 0.00 0.00 0.00 0.00 0.01 0.01 0.01 0.01 0.01 0.01 0.01 0.01 0.02 0.02 0.02
MSLP
1006.38 1007.30 1008.10 1008.71 1009.06 1009.11 1008.86 1008.36 1007.67 1006.89 1006.11 1005.42 1004.91 1004.61 1004.54 1004.68 1004.97 1005.37 1005.81 1006.24 1006.63 1006.97 1007.28 1007.57 1007.88 1008.24 1008.65 1009.12 1009.62 1010.12 1010.59 1011.00 1011.32 1011.57 1011.74 1011.88 1012.01 1012.17 1012.38 1012.66 1012.99 1013.37 1013.77 1014.15
1006.00 1006.86 1007.57 1008.05 1008.25 1008.17 1007.84 1007.33 1006.70 1006.06 1005.49 1005.05 1004.81 1004.75 1004.87 1005.12 1005.45 1005.79 1006.12 1006.38 1006.60 1006.77 1006.94 1007.15 1007.41 1007.77 1008.20 1008.71 1009.24 1009.77 1010.24 1010.63 1010.93 1011.14 1011.28 1011.39 1011.51 1011.66 1011.88 1012.17 1012.52 1012.90 1013.29 1013.65
1005.55 1006.31 1006.89 1007.24 1007.33 1007.17 1006.80 1006.31 1005.80 1005.34 1005.01 1004.86 1004.90 1005.12 1005.45 1005.85 1006.25 1006.59 1006.84 1006.99 1007.06 1007.10 1007.15 1007.26 1007.46 1007.78 1008.21 1008.72 1009.26 1009.78 1010.23 1010.59 1010.85 1011.02 1011.11 1011.18 1011.27 1011.41 1011.62 1011.90 1012.23 1012.59 1012.95 1013.27
1005.20 1005.82 1006.26 1006.48 1006.46 1006.23 1005.85 1005.42 1005.03 1004.77 1004.69 1004.82 1005.15 1005.64 1006.21 1006.78 1007.29 1007.67 1007.90 1007.99 1007.98 1007.91 1007.86 1007.89 1008.03 1008.31 1008.70 1009.18 1009.69 1010.18 1010.59 1010.91 1011.12 1011.23 1011.28 1011.31 1011.36 1011.46 1011.64 1011.88 1012.18 1012.50 1012.81 1013.08
1005.11 1005.55 1005.83 1005.90 1005.77 1005.47 1005.09 1004.72 1004.44 1004.35 1004.50 1004.88 1005.48 1006.22 1007.01 1007.76 1008.40 1008.86 1009.13 1009.21 1009.16 1009.04 1008.94 1008.91 1008.99 1009.22 1009.56 1010.00 1010.46 1010.90 1011.27 1011.54 1011.70 1011.76 1011.76 1011.74 1011.74 1011.80 1011.93 1012.13 1012.37 1012.64 1012.89 1013.09
1005.32 1005.57 1005.67 1005.58 1005.33 1004.96 1004.56 1004.22 1004.03 1004.08 1004.39 1004.97 1005.78 1006.73 1007.71 1008.63 1009.40 1009.96 1010.30 1010.43 1010.39 1010.28 1010.15 1010.09 1010.15 1010.33 1010.63 1011.02 1011.44 1011.83 1012.15 1012.37 1012.48 1012.50 1012.45 1012.39 1012.35 1012.36 1012.43 1012.57 1012.76 1012.96 1013.15 1013.30
1005.77 1005.82 1005.74 1005.50 1005.13 1004.68 1004.25 1003.92 1003.78 1003.91 1004.34 1005.05 1006.00 1007.09 1008.21 1009.26 1010.15 1010.82 1011.25 1011.45 1011.47 1011.39 1011.29 1011.24 1011.28 1011.45 1011.72 1012.07 1012.45 1012.80 1013.09 1013.27 1013.35 1013.33 1013.25 1013.15 1013.06 1013.02 1013.04 1013.12 1013.25 1013.40 1013.53 1013.63
1006.31 1006.18 1005.93 1005.56 1005.09 1004.57 1004.11 1003.77 1003.67 1003.84 1004.32 1005.10 1006.11 1007.28 1008.48 1009.62 1010.59 1011.35 1011.87 1012.15 1012.25 1012.24 1012.20 1012.18 1012.25 1012.42 1012.68 1013.02 1013.37 1013.70 1013.95 1014.11 1014.17 1014.13 1014.03 1013.89 1013.77 1013.69 1013.66 1013.68 1013.75 1013.85 1013.94 1014.01
1006.74 1006.48 1006.11 1005.65 1005.12 1004.57 1004.09 1003.77 1003.67 1003.86 1004.36 1005.14 1006.17 1007.35 1008.57 1009.73 1010.75 1011.57 1012.15 1012.52 1012.71 1012.78 1012.81 1012.85 1012.96 1013.16 1013.43 1013.76 1014.11 1014.42 1014.66 1014.81 1014.85 1014.80 1014.68 1014.52 1014.37 1014.24 1014.17 1014.15 1014.17 1014.23 1014.30 1014.35
1006.92 1006.58 1006.17 1005.68 1005.15 1004.62 1004.18 1003.89 1003.82 1004.02 1004.51 1005.28 1006.27 1007.41 1008.59 1009.73 1010.75 1011.58 1012.21 1012.64 1012.90 1013.06 1013.16 1013.27 1013.43 1013.66 1013.96 1014.30 1014.64 1014.94 1015.18 1015.31 1015.35 1015.28 1015.14 1014.96 1014.78 1014.62 1014.51 1014.45 1014.45 1014.48 1014.53 1014.58
1006.79 1006.45 1006.07 1005.63 1005.18 1004.74 1004.38 1004.17 1004.16 1004.39 1004.88 1005.61 1006.54 1007.60 1008.70 1009.78 1010.74 1011.56 1012.19 1012.65 1012.97 1013.19 1013.36 1013.53 1013.74 1014.00 1014.31 1014.65 1014.99 1015.28 1015.50 1015.62 1015.64 1015.56 1015.40 1015.20 1014.99 1014.81 1014.67 1014.58 1014.56 1014.58 1014.63 1014.68
1006.42 1006.16 1005.87 1005.56 1005.25 1004.97 1004.76 1004.68 1004.76 1005.04 1005.54 1006.23 1007.09 1008.05 1009.05 1010.02 1010.90 1011.66 1012.26 1012.72 1013.06 1013.31 1013.52 1013.73 1013.97 1014.24 1014.56 1014.89 1015.20 1015.47 1015.66 1015.76 1015.75 1015.65 1015.48 1015.26 1015.03 1014.83 1014.67 1014.57 1014.54 1014.56 1014.61 1014.68
1006.01 1005.87 1005.73 1005.60 1005.48 1005.40 1005.38 1005.46 1005.66 1006.02 1006.53 1007.18 1007.96 1008.82 1009.69 1010.54 1011.31 1011.97 1012.52 1012.94 1013.26 1013.52 1013.74 1013.96 1014.20 1014.47 1014.76 1015.05 1015.33 1015.56 1015.71 1015.77 1015.74 1015.62 1015.43 1015.20 1014.97 1014.76 1014.60 1014.50 1014.47 1014.50 1014.56 1014.64
1005.76 1005.77 1005.81 1005.88 1005.97 1006.10 1006.28 1006.53 1006.86 1007.29 1007.81 1008.44 1009.13 1009.87 1010.61 1011.32 1011.96 1012.52 1012.97 1013.33 1013.61 1013.84 1014.04 1014.24 1014.45 1014.69 1014.93 1015.18 1015.40 1015.57 1015.68 1015.70 1015.64 1015.50 1015.31 1015.09 1014.87 1014.67 1014.53 1014.45 1014.44 1014.48 1014.56 1014.66
1005.89 1006.04 1006.24 1006.49 1006.78 1007.10 1007.45 1007.84 1008.28 1008.76 1009.30 1009.87 1010.48 1011.10 1011.71 1012.27 1012.78 1013.21 1013.57 1013.84 1014.06 1014.24 1014.40 1014.55 1014.72 1014.89 1015.08 1015.25 1015.41 1015.52 1015.58 1015.57 1015.49 1015.36 1015.18 1014.99 1014.81 1014.65 1014.55 1014.51 1014.53 1014.59 1014.69 1014.78
1006.49 1006.74 1007.07 1007.45 1007.88 1008.34 1008.81 1009.30 1009.80 1010.30 1010.82 1011.33 1011.84 1012.34 1012.81 1013.23 1013.61 1013.92 1014.18 1014.37 1014.52 1014.64 1014.75 1014.84 1014.94 1015.05 1015.17 1015.27 1015.36 1015.42 1015.44 1015.41 1015.34 1015.23 1015.10 1014.97 1014.85 1014.76 1014.72 1014.73 1014.78 1014.87 1014.97 1015.05
1007.52 1007.83 1008.22 1008.68 1009.18 1009.70 1010.22 1010.75 1011.25 1011.73 1012.19 1012.62 1013.03 1013.41 1013.75 1014.05 1014.31 1014.53 1014.69 1014.82 1014.91 1014.97 1015.02 1015.06 1015.11 1015.15 1015.20 1015.24 1015.28 1015.30 1015.30 1015.27 1015.23 1015.17 1015.11 1015.05 1015.02 1015.02 1015.05 1015.12 1015.21 1015.31 1015.40 1015.46
1008.85 1009.16 1009.55 1010.00 1010.50 1011.01 1011.52 1012.01 1012.47 1012.89 1013.27 1013.61 1013.91 1014.18 1014.41 1014.62 1014.79 1014.93 1015.04 1015.12 1015.17 1015.19 1015.21 1015.21 1015.20 1015.20 1015.20 1015.20 1015.20 1015.20 1015.20 1015.20 1015.20 1015.21 1015.23 1015.27 1015.33 1015.42 1015.53 1015.65 1015.77 1015.87 1015.94 1015.95
1010.25 1010.51 1010.84 1011.24 1011.67 1012.11 1012.55 1012.96 1013.33 1013.66 1013.95 1014.19 1014.40 1014.59 1014.75 1014.89 1015.01 1015.12 1015.20 1015.27 1015.31 1015.33 1015.33 1015.32 1015.29 1015.26 1015.23 1015.21 1015.19 1015.19 1015.21 1015.24 1015.30 1015.39 1015.50 1015.63 1015.78 1015.95 1016.11 1016.26 1016.39 1016.47 1016.49 1016.43
1011.49 1011.66 1011.91 1012.20 1012.54 1012.88 1013.22 1013.53 1013.80 1014.04 1014.24 1014.40 1014.55 1014.68 1014.80 1014.92 1015.04 1015.15 1015.26 1015.35 1015.41 1015.46 1015.48 1015.48 1015.45 1015.42 1015.38 1015.35 1015.34 1015.35 1015.39 1015.47 1015.58 1015.73 1015.91 1016.11 1016.33 1016.54 1016.73 1016.89 1016.99 1017.02 1016.97 1016.82
1012.39 1012.48 1012.63 1012.83 1013.06 1013.30 1013.53 1013.74 1013.93 1014.09 1014.22 1014.34 1014.45 1014.57 1014.69 1014.83 1014.99 1015.15 1015.30 1015.45 1015.57 1015.67 1015.73 1015.76 1015.76 1015.75 1015.72 1015.70 1015.69 1015.72 1015.78 1015.89 1016.04 1016.23 1016.45 1016.69 1016.93 1017.15 1017.34 1017.46 1017.51 1017.47 1017.32 1017.07
1012.91 1012.93 1013.00 1013.11 1013.26 1013.41 1013.57 1013.71 1013.83 1013.95 1014.05 1014.15 1014.27 1014.41 1014.57 1014.76 1014.98 1015.21 1015.44 1015.66 1015.86 1016.02 1016.14 1016.22 1016.26 1016.27 1016.26 1016.25 1016.26 1016.29 1016.37 1016.48 1016.65 1016.85 1017.08 1017.31 1017.54 1017.73 1017.87 1017.93 1017.90 1017.77 1017.52 1017.17
1013.10 1013.07 1013.09 1013.16 1013.25 1013.36 1013.47 1013.57 1013.67 1013.77 1013.88 1014.00 1014.15 1014.34 1014.56 1014.82 1015.11 1015.42 1015.74 1016.04 1016.31 1016.54 1016.72 1016.84 1016.92 1016.96 1016.97 1016.98 1016.99 1017.03 1017.10 1017.21 1017.35 1017.53 1017.73 1017.93 1018.10 1018.24 1018.30 1018.28 1018.16 1017.94 1017.60 1017.16
1013.09 1013.05 1013.06 1013.11 1013.19 1013.28 1013.39 1013.49 1013.60 1013.72 1013.85 1014.02 1014.22 1014.46 1014.75 1015.08 1015.44 1015.82 1016.20 1016.56 1016.89 1017.17 1017.40 1017.56 1017.67 1017.73 1017.76 1017.77 1017.79 1017.81 1017.87 1017.95 1018.07 1018.20 1018.35 1018.48 1018.59 1018.64 1018.62 1018.51 1018.31 1018.00 1017.59 1017.09
1013.05 1013.04 1013.07 1013.13 1013.22 1013.34 1013.46 1013.59 1013.73 1013.88 1014.06 1014.27 1014.52 1014.81 1015.15 1015.53 1015.94 1016.36 1016.78 1017.18 1017.53 1017.84 1018.08 1018.27 1018.39 1018.47 1018.50 1018.51 1018.52 1018.54 1018.57 1018.62 1018.70 1018.78 1018.87 1018.93 1018.96 1018.94 1018.84 1018.66 1018.39 1018.02 1017.57 1017.03
1013.12 1013.15 1013.22 1013.33 1013.45 1013.60 1013.76 1013.92 1014.10 1014.30 1014.52 1014.77 1015.06 1015.39 1015.75 1016.15 1016.57 1016.99 1017.41 1017.80 1018.14 1018.44 1018.68 1018.85 1018.97 1019.04 1019.08 1019.09 1019.09 1019.10 1019.11 1019.14 1019.18 1019.22 1019.26 1019.27 1019.24 1019.15 1019.00 1018.76 1018.45 1018.06 1017.59 1017.06
1013.40 1013.48 1013.59 1013.74 1013.91 1014.09 1014.29 1014.50 1014.72 1014.95 1015.20 1015.48 1015.78 1016.12 1016.48 1016.86 1017.25 1017.63 1018.01 1018.35 1018.65 1018.90 1019.10 1019.24 1019.34 1019.39 1019.42 1019.43 1019.43 1019.43 1019.44 1019.46 1019.49 1019.51 1019.51 1019.49 1019.42 1019.31 1019.12 1018.87 1018.55 1018.17 1017.72 1017.22
Thickness
5796 5797 5787 5778 5778 5781 5775 5776 5773 5775 5773 5770 5774 5775 5773 5778 5779 5778 5775 5774 5771 5767 5764 5763 5762 5761 5760 5756 5754 5752 5747 5744 5740 5739 5738 5736 5733 5731 5729 5727 5724 5721 5719 5716
5783 5792 5790 5782 5788 5789 5785 5788 5787 5784 5773 5778 5777 5774 5772 5772 5772 5768 5767 5767 5767 5765 5762 5759 5758 5757 5756 5754 5752 5750 5746 5742 5740 5738 5735 5731 5729 5727 5724 5722 5719 5717 5714 5712
5767 5783 5780 5769 5785 5787 5789 5796 5791 5776 5771 5772 5767 5764 5764 5767 5765 5760 5758 5758 5758 5757 5756 5754 5754 5753 5750 5749 5747 5743 5739 5736 5734 5732 5729 5725 5724 5720 5716 5714 5711 5709 5707 5706
5763 5761 5738 5773 5799 5797 5791 5793 5793 5784 5777 5770 5761 5759 5761 5761 5756 5751 5749 5748 5747 5747 5746 5745 5745 5743 5741 5739 5735 5732 5728 5725 5723 5722 5718 5714 5711 5709 5706 5704 5702 5700 5698 5696
5753 5747 5749 5766 5778 5781 5775 5775 5788 5778 5769 5762 5758 5751 5745 5749 5748 5743 5740 5738 5737 5736 5734 5732 5730 5729 5727 5723 5720 5716 5713 5711 5709 5706 5704 5701 5698 5696 5694 5692 5690 5688 5687 5686
5745 5739 5732 5753 5770 5780 5774 5754 5777 5772 5763 5757 5752 5735 5727 5736 5735 5732 5730 5727 5724 5722 5720 5717 5715 5715 5712 5707 5703 5699 5697 5696 5694 5692 5689 5687 5685 5683 5681 5679 5678 5677 5675 5674
5739 5739 5743 5754 5765 5766 5737 5739 5764 5763 5758 5753 5748 5739 5730 5728 5724 5720 5716 5714 5712 5708 5704 5701 5700 5699 5694 5691 5686 5684 5683 5681 5679 5678 5676 5674 5672 5670 5668 5666 5664 5663 5663 5662
5735 5728 5722 5743 5748 5734 5737 5755 5759 5756 5751 5743 5736 5729 5723 5717 5712 5709 5705 5702 5698 5694 5690 5688 5687 5684 5680 5675 5673 5672 5670 5667 5666 5664 5663 5661 5658 5657 5656 5654 5653 5652 5651 5650
5717 5717 5728 5737 5733 5738 5748 5750 5752 5749 5744 5736 5726 5719 5712 5706 5701 5698 5694 5690 5687 5682 5678 5675 5673 5671 5666 5663 5661 5659 5656 5654 5652 5651 5649 5648 5646 5645 5644 5643 5641 5639 5637 5635
5705 5710 5720 5729 5736 5740 5748 5748 5748 5743 5736 5729 5718 5709 5702 5696 5690 5686 5682 5679 5676 5671 5666 5662 5660 5658 5655 5652 5650 5647 5644 5642 5642 5640 5639 5638 5636 5635 5633 5630 5627 5624 5620 5618
5700 5706 5714 5723 5726 5733 5739 5739 5736 5732 5726 5719 5710 5700 5693 5685 5680 5676 5673 5669 5665 5659 5655 5651 5648 5646 5644 5641 5638 5635 5633 5632 5631 5630 5629 5626 5625 5623 5621 5618 5614 5609 5606 5603
5692 5703 5706 5710 5723 5729 5726 5724 5722 5717 5709 5704 5698 5690 5683 5676 5671 5666 5661 5657 5653 5649 5644 5640 5637 5634 5631 5629 5626 5623 5621 5619 5619 5618 5616 5615 5613 5611 5609 5605 5601 5597 5592 5587
5704 5710 5712 5715 5718 5719 5715 5712 5709 5702 5695 5689 5684 5679 5672 5664 5659 5655 5651 5646 5642 5638 5634 5630 5626 5623 5620 5617 5614 5610 5606 5605 5605 5604 5602 5601 5599 5596 5594 5592 5587 5582 5577 5572
5706 5706 5702 5703 5703 5705 5703 5699 5693 5686 5680 5675 5669 5664 5658 5652 5647 5642 5638 5635 5632 5628 5623 5619 5615 5611 5608 5605 5601 5598 5596 5595 5593 5590 5588 5587 5585 5582 5579 5575 5572 5568 5561 5554
5698 5699 5696 5695 5693 5690 5687 5682 5675 5669 5664 5659 5655 5649 5644 5638 5633 5629 5627 5624 5620 5615 5611 5607 5602 5597 5595 5592 5588 5585 5584 5582 5579 5576 5574 5573 5570 5566 5562 5558 5554 5549 5545 5539
5687 5687 5685 5680 5675 5673 5669 5665 5659 5653 5649 5645 5640 5636 5632 5628 5623 5619 5615 5612 5607 5601 5598 5593 5588 5584 5581 5578 5574 5572 5571 5567 5564 5563 5561 5558 5554 5549 5544 5540 5536 5530 5526 5521
5672 5668 5666 5663 5660 5657 5654 5650 5645 5640 5636 5631 5627 5624 5620 5616 5610 5606 5603 5600 5595 5590 5585 5580 5575 5571 5568 5563 5559 5558 5557 5554 5551 5549 5546 5540 5535 5530 5526 5522 5517 5512 5508 5503
5663 5659 5656 5652 5647 5641 5637 5634 5630 5625 5622 5619 5616 5611 5607 5602 5598 5594 5591 5587 5582 5577 5572 5567 5562 5559 5555 5549 5545 5543 5542 5540 5537 5533 5528 5523 5517 5513 5509 5504 5500 5496 5493 5489
5648 5644 5641 5637 5633 5628 5623 5620 5617 5614 5611 5608 5604 5599 5596 5592 5588 5584 5581 5576 5570 5563 5558 5554 5548 5546 5541 5536 5530 5529 5529 5526 5522 5517 5512 5506 5502 5497 5492 5488 5484 5480 5478 5475
5632 5629 5626 5623 5620 5616 5612 5609 5606 5603 5600 5596 5592 5588 5584 5581 5578 5574 5569 5562 5556 5551 5546 5540 5537 5532 5527 5521 5515 5516 5514 5510 5506 5501 5496 5491 5486 5482 5477 5473 5470 5467 5465 5463
5616 5614 5611 5609 5606 5604 5602 5599 5596 5592 5589 5586 5582 5578 5574 5571 5568 5563 5557 5548 5541 5536 5532 5526 5522 5515 5511 5505 5503 5504 5500 5495 5490 5485 5480 5476 5472 5468 5464 5461 5459 5457 5455 5453
5602 5601 5599 5597 5594 5592 5590 5589 5586 5583 5579 5575 5572 5568 5564 5560 5556 5550 5543 5536 5528 5520 5519 5514 5507 5498 5494 5491 5493 5490 5485 5480 5475 5471 5467 5463 5459 5456 5453 5451 5449 5447 5445 5444
5590 5589 5587 5586 5584 5582 5580 5578 5576 5572 5568 5564 5561 5556 5552 5547 5544 5538 5529 5521 5516 5507 5504 5496 5488 5484 5480 5481 5480 5476 5472 5466 5461 5458 5455 5451 5448 5445 5443 5442 5440 5439 5438 5437
5578 5577 5576 5576 5575 5572 5569 5568 5565 5562 5558 5554 5550 5546 5542 5536 5530 5523 5514 5504 5499 5495 5489 5480 5475 5472 5469 5470 5467 5463 5458 5453 5449 5446 5443 5441 5439 5437 5435 5434 5433 5433 5432 5432
5569 5568 5567 5565 5563 5562 5560 5558 5555 5551 5547 5543 5539 5533 5529 5522 5515 5508 5501 5493 5486 5482 5478 5470 5466 5463 5462 5460 5456 5451 5447 5442 5439 5436 5434 5432 5431 5429 5428 5428 5427 5427 5427 5427
5560 5560 5558 5555 5552 5550 5549 5546 5543 5539 5535 5529 5524 5519 5513 5507 5501 5495 5489 5483 5477 5471 5468 5464 5460 5456 5453 5450 5445 5441 5438 5435 5432 5430 5427 5426 5424 5423 5423 5422 5422 5422 5422 5421
5552 5551 5548 5545 5543 5540 5538 5534 5530 5526 5521 5517 5511 5506 5501 5495 5490 5484 5479 5473 5468 5464 5461 5457 5453 5449 5445 5441 5437 5433 5430 5427 5424 5422 5421 5419 5418 5417 5417 5417 5416 5416 5415 5415